Mount Airy, NC

11:59 AM EST on December 07, 2019 (GMT -0500)
Mount Airy-Surry County

Weather History for KMWK - June, 2019

Change the Weather History Date:

Friday, June 7, 2019

  Actual Average (KINT) Record (KINT)
Temperature  
Mean Temperature 71 °F -  
Max Temperature 73 °F 80 °F 96 °F (1969)
Min Temperature 69 °F 62 °F 30 °F (1997)
Cooling Degree Days 6    
Growing Degree Days 21 (Base 50)    
Moisture  
Dew Point 68 °F    
Average Humidity 90    
Maximum Humidity 91    
Minimum Humidity 87    
Precipitation  
Precipitation 0.00 in - - ()
Sea Level Pressure  
Sea Level Pressure 29.89 in    
Wind  
Wind Speed 2 mph ()    
Max Wind Speed 15 mph    
Max Gust Speed 23 mph    
Visibility 7.8 miles    
Events Rain    
Averages and records for this station are not official NWS values.
T = Trace of Precipitation, MM = Missing Value Source: Averaged Metar Reports

Daily Weather History Graph

Daily Weather History Graph

Search for Another Location

Airport or City:

Astronomy

Jun. 07, 2019 Rise Set
Actual Time 6:04 AM EDT 8:38 PM EDT
Civil Twilight 5:33 AM EDT 9:08 PM EDT
Nautical Twilight 4:56 AM EDT 9:46 PM EDT
Astronomical Twilight 4:14 AM EDT 10:27 PM EDT
Moon 10:17 AM EDT No Moon Set
Length of Visible Light 15h 34m
Length of Day
14h 34m
Waxing Crescent, 22% of the Moon is Illuminated
Jun 7
Waxing Crescent
Jun 10
First Quarter
Jun 17
Full
Jun 25
Last Quarter
Jul 2
New

Hourly Weather History & Observations

Time (EDT) Temp. Dew Point Humidity Pressure Visibility Wind Dir Wind Speed Gust Speed Precip Events Conditions
12:00 AM 70.7 °F 67.6 °F 90% 29.91 in 10.0 mi Calm Calm - N/A   Clear
12:20 AM 70.2 °F 67.3 °F 91% 29.91 in 7.0 mi Calm Calm - N/A   Clear
12:40 AM 70.2 °F 67.5 °F 91% 29.90 in 10.0 mi Calm Calm - N/A   Clear
1:00 AM 69.8 °F 67.1 °F 91% 29.90 in 7.0 mi Calm Calm - N/A   Clear
1:20 AM 69.8 °F 67.1 °F 91% 29.90 in 5.0 mi Calm Calm - N/A   Clear
1:40 AM 69.8 °F 67.1 °F 91% 29.89 in 5.0 mi Calm Calm - N/A   Clear
2:00 AM 69.8 °F 67.1 °F 91% 29.89 in 5.0 mi Calm Calm - N/A Rain Light Rain
2:20 AM 69.8 °F 67.1 °F 91% 29.89 in 5.0 mi Calm Calm - N/A   Light Drizzle
2:40 AM 69.8 °F 67.1 °F 91% 29.88 in 7.0 mi Calm Calm - N/A   Clear
3:00 AM 69.8 °F 66.7 °F 90% 29.88 in 5.0 mi Calm Calm - N/A   Scattered Clouds
3:20 AM 69.4 °F 66.6 °F 91% 29.88 in 5.0 mi Calm Calm - N/A   Light Drizzle
3:40 AM 69.8 °F 66.7 °F 90% 29.88 in 7.0 mi Calm Calm - N/A   Clear
4:00 AM 69.8 °F 67.1 °F 91% 29.88 in 5.0 mi Calm Calm - N/A Rain Light Rain
4:20 AM 69.8 °F 66.9 °F 91% 29.87 in 4.0 mi Calm Calm - N/A   Light Drizzle
4:40 AM 69.8 °F 67.1 °F 91% 29.87 in 5.0 mi Calm Calm - N/A   Scattered Clouds
5:00 AM 69.8 °F 67.1 °F 91% 29.87 in 7.0 mi Calm Calm - N/A   Clear
5:20 AM 69.8 °F 66.7 °F 90% 29.87 in 7.0 mi Calm Calm - N/A   Scattered Clouds
5:40 AM 69.8 °F 66.9 °F 91% 29.88 in 7.0 mi Calm Calm - N/A   Scattered Clouds
6:00 AM 69.4 °F 66.6 °F 91% 29.87 in 5.0 mi Calm Calm - N/A   Clear
6:20 AM 69.3 °F 66.2 °F 90% 29.88 in 4.0 mi Calm Calm - N/A   Scattered Clouds
6:40 AM 69.4 °F 66.6 °F 91% 29.89 in 5.0 mi Calm Calm - N/A   Mostly Cloudy
7:00 AM 69.8 °F 66.7 °F 90% 29.90 in 5.0 mi Calm Calm - N/A   Overcast
7:20 AM 70.0 °F 67.1 °F 91% 29.89 in 5.0 mi Calm Calm - N/A   Scattered Clouds
7:40 AM 70.2 °F 67.3 °F 91% 29.89 in 7.0 mi Calm Calm - N/A   Scattered Clouds
8:00 AM 71.1 °F 68.2 °F 91% 29.89 in 10.0 mi Calm Calm - N/A   Scattered Clouds
8:20 AM 71.1 °F 68.2 °F 91% 29.90 in 10.0 mi Calm Calm - N/A   Mostly Cloudy
8:35 AM 71.1 °F 68.2 °F 91% 29.90 in 10.0 mi Calm Calm - N/A   Mostly Cloudy
9:00 AM 71.4 °F 68.4 °F 90% 29.90 in 10.0 mi Calm Calm - N/A   Unknown
9:20 AM 71.1 °F 68.0 °F 90% 29.90 in 7.0 mi Calm Calm - N/A   Mostly Cloudy
9:40 AM 70.9 °F 68.0 °F 91% 29.90 in 7.0 mi Calm Calm - N/A   Mostly Cloudy
10:00 AM 70.9 °F 68.0 °F 91% 29.90 in 3.0 mi Calm Calm - N/A   Heavy Drizzle
10:20 AM 70.9 °F 68.0 °F 91% 29.90 in 7.0 mi Calm Calm - N/A   Mostly Cloudy
10:40 AM 71.1 °F 68.0 °F 90% 29.90 in 3.0 mi Calm Calm - N/A   Light Drizzle
11:00 AM 71.4 °F 68.4 °F 90% 29.91 in 4.0 mi East 3.5 mph - N/A   Overcast
11:20 AM 72.1 °F 69.1 °F 90% 29.91 in 10.0 mi ENE 4.6 mph - N/A   Mostly Cloudy
11:40 AM 72.5 °F 69.6 °F 91% 29.91 in 10.0 mi ENE 3.5 mph - N/A Rain Light Rain
12:00 PM 72.7 °F 69.6 °F 90% 29.91 in 10.0 mi Calm Calm - N/A   Light Drizzle
12:20 PM 72.7 °F 69.4 °F 90% 29.91 in 10.0 mi East 3.5 mph - N/A   Light Drizzle
12:40 PM 73.0 °F 69.8 °F 90% 29.90 in 10.0 mi Calm Calm - N/A   Drizzle
1:00 PM 72.7 °F 69.6 °F 90% 29.90 in 10.0 mi East 4.6 mph - N/A Rain Rain
1:20 PM 73.0 °F 69.8 °F 90% 29.89 in 10.0 mi ENE 3.5 mph - N/A   Light Drizzle
1:40 PM 73.4 °F 70.0 °F 89% 29.89 in 10.0 mi ENE 4.6 mph - N/A   Mostly Cloudy
2:00 PM 73.6 °F 70.2 °F 89% 29.89 in 10.0 mi East 3.5 mph - N/A   Light Drizzle
2:20 PM 73.8 °F 69.8 °F 87% 29.88 in 10.0 mi East 3.5 mph - N/A Rain Light Rain
2:40 PM 73.4 °F 70.2 °F 90% 29.88 in 10.0 mi ENE 3.5 mph - N/A   Drizzle
3:00 PM 73.4 °F 70.2 °F 90% 29.88 in 10.0 mi East 3.5 mph - N/A Rain Rain
3:20 PM 73.0 °F 69.8 °F 90% 29.88 in 10.0 mi East 4.6 mph - N/A   Drizzle
3:40 PM 72.5 °F 69.4 °F 90% 29.87 in 7.0 mi East 4.6 mph - N/A Rain Light Rain
4:00 PM 72.5 °F 69.3 °F 90% 29.87 in 7.0 mi ENE 5.8 mph - N/A Rain Light Rain
4:20 PM 72.5 °F 69.3 °F 90% 29.87 in 10.0 mi ENE 4.6 mph - N/A Rain Rain
4:40 PM 72.5 °F 69.3 °F 90% 29.87 in 10.0 mi ENE 4.6 mph - N/A Rain Light Rain
5:00 PM 72.1 °F 69.1 °F 90% 29.86 in 10.0 mi ENE 5.8 mph - N/A Rain Light Rain
5:20 PM 72.0 °F 68.9 °F 90% 29.87 in 10.0 mi East 9.2 mph - N/A   Mostly Cloudy
5:40 PM 71.8 °F 68.9 °F 91% 29.87 in 10.0 mi ENE 6.9 mph - N/A   Overcast
6:00 PM 72.5 °F 69.3 °F 90% 29.87 in 10.0 mi ENE 8.1 mph - N/A   Mostly Cloudy
6:20 PM 72.5 °F 69.3 °F 90% 29.87 in 10.0 mi NE 6.9 mph - N/A   Mostly Cloudy
6:40 PM 72.5 °F 69.3 °F 90% 29.87 in 10.0 mi ENE 6.9 mph - N/A   Overcast
7:00 PM 72.1 °F 68.9 °F 89% 29.87 in 10.0 mi NE 6.9 mph - N/A   Overcast
7:20 PM 71.4 °F 68.2 °F 89% 29.87 in 10.0 mi ENE 13.8 mph 20.7 mph N/A   Overcast
7:40 PM 70.3 °F 67.3 °F 90% 29.88 in 5.0 mi ENE 10.4 mph 17.3 mph N/A Rain Light Rain
8:00 PM 70.2 °F 67.1 °F 90% 29.89 in 7.0 mi East 9.2 mph 17.3 mph N/A   Overcast
8:20 PM 69.8 °F 66.7 °F 90% 29.90 in 5.0 mi ENE 11.5 mph 18.4 mph N/A Rain Light Rain
8:40 PM 69.8 °F 66.9 °F 91% 29.90 in 4.0 mi ENE 9.2 mph - N/A Rain Rain
9:00 PM 69.3 °F 66.4 °F 91% 29.89 in 7.0 mi ENE 12.7 mph - N/A Rain Rain
9:20 PM 69.3 °F 66.4 °F 91% 29.89 in 10.0 mi ENE 9.2 mph 18.4 mph N/A Rain Light Rain
9:40 PM 69.1 °F 66.2 °F 91% 29.88 in 10.0 mi ENE 10.4 mph 18.4 mph N/A Rain Light Rain
10:00 PM 69.3 °F 66.2 °F 90% 29.90 in 10.0 mi ENE 11.5 mph 17.3 mph N/A Rain Light Rain
10:20 PM 69.3 °F 66.2 °F 90% 29.90 in 10.0 mi ENE 12.7 mph 20.7 mph N/A   Overcast
10:40 PM 69.8 °F 66.7 °F 90% 29.91 in 10.0 mi ENE 12.7 mph 23.0 mph N/A   Mostly Cloudy
11:00 PM 69.8 °F 66.7 °F 90% 29.92 in 10.0 mi ENE 15.0 mph 19.6 mph N/A   Mostly Cloudy
11:20 PM 69.8 °F 66.7 °F 90% 29.92 in 7.0 mi ENE 11.5 mph 17.3 mph N/A   Overcast
11:40 PM 69.8 °F 67.1 °F 91% 29.91 in 10.0 mi ENE 9.2 mph - N/A   Overcast